sat.trackr.live / text

‹ back to catalog

STARLINK-33597

NORAD 62763 · 2025-015F

PAYLOAD ACTIVE UNKNOWN

§ Identity

Operator
Country
US
Launch date
2025-01-21
Launch site
AFWTR
Launch vehicle
Mass (kg)
RCS (m²)

Purposes: comms

External: N2YO · Heavens-Above · Gunter

§ Orbital elements

Epoch: 2026-05-24T19:17:40.115328Z

Period
94.01 min
Inclination
53.1596°
Eccentricity
0.0001020
Mean motion
15.31716920 rev/d
Perigee alt
470.0 km
Apogee alt
471.4 km
Semi-major
6,848.8 km
B*
7.5026e-4
RAAN
328.9815°
Arg perigee
78.9798°
Mean anomaly
281.1318°
Rev number
7,613

§ Raw data

STARLINK-335971 62763U 25015F   26144.80393652  .00023000  00000+0  75026-3 0  99972 62763  53.1596 328.9815 0001020  78.9798 281.1318 15.31716920 76138

JSON: /api/v1/satellites/62763 · /tle

For live sub-satellite position, see the globe view (requires WebGL).

§ Visibility from observer

Set your observer location to see the next 7 days of passes ≥ 10°. The values pass through the URL so the page stays shareable.

No JS? Fill the form by hand. The geolocation button needs JavaScript.